Location: Newark
(42.8481°N, 0.4872°E)
Time: 08:59:39
(UTC+00:00)

Vanguard 2 - Pass Details

Date: 05 November 2020
Orbit: 554 x 2937 km, 32.9° (Epoch: 26 November)

Event Time Altitude Azimuth Distance (km) Brightness Sun altitude
Rises 20:18:54 0° 265° (W) 4,947 12.5 -39.3°
Reaches altitude 10° 20:21:49 10° 260° (W) 4,236 11.9 -39.9°
Maximum altitude 20:33:40 53° 188° (S) 2,903 10.1 -41.9°
Enters shadow 20:34:08 53° 183° (S) 2,929 10.1 -42.0°
Drops below altitude 10° 20:50:14 10° 119° (ESE) 5,752 - -44.8°
Sets 20:54:57 0° 115° (ESE) 6,779 - -45.6°
